GFSFLT2_sfc_vis_141.txt.gz
Visibility
15.0 15.0 15.0 15.0 15.0 15.0 15.0 15.0 15.0 15.0 15.0 15.0 15.0 15.0 15.0 15.0 15.0 15.0 15.0 15.0 15.0 15.0 15.0 15.0 15.0 15.0 15.0
15.0 15.0 15.0 15.0 15.0 15.0 15.0 15.0 15.0 15.0 15.0 15.0 15.0 15.0 15.0 15.0 15.0 15.0 15.0 15.0 15.0 15.0 15.0 15.0 15.0 15.0 15.0
15.0 15.0 15.0 15.0 15.0 15.0 15.0 15.0 15.0 15.0 15.0 15.0 15.0 15.0 15.0 15.0 15.0 15.0 15.0 15.0 15.0 15.0 15.0 15.0 15.0 15.0 15.0
15.0 15.0 15.0 15.0 15.0 15.0 15.0 15.0 15.0 15.0 15.0 15.0 15.0 15.0 15.0 15.0 15.0 15.0 15.0 15.0 15.0 15.0 15.0 15.0 15.0 15.0 15.0
15.0 15.0 15.0 15.0 15.0 15.0 15.0 15.0 15.0 15.0 15.0 15.0 15.0 15.0 15.0 15.0 15.0 15.0 15.0 15.0 15.0 15.0 15.0 15.0 15.0 15.0 15.0
15.0 15.0 15.0 15.0 15.0 15.0 15.0 15.0 14.9 15.0 15.0 15.0 15.0 15.0 15.0 15.0 15.0 15.0 15.0 15.0 15.0 15.0 15.0 15.0 15.0 15.0 15.0
15.0 15.0 15.0 15.0 15.0 15.0 15.0 15.0 15.0 15.0 15.0 9.9 15.0 15.0 15.0 15.0 15.0 15.0 15.0 15.0 15.0 15.0 15.0 15.0 15.0 15.0 15.0
15.0 15.0 15.0 15.0 15.0 15.0 15.0 15.0 6.9 15.0 15.0 0.8 15.0 15.0 15.0 15.0 15.0 15.0 15.0 15.0 15.0 15.0 15.0 15.0 15.0 15.0 15.0
15.0 15.0 15.0 15.0 15.0 2.8 0.1 0.0 0.2 14.8 15.0 15.0 15.0 15.0 15.0 15.0 15.0 15.0 15.0 15.0 15.0 15.0 15.0 15.0 15.0 15.0 15.0
15.0 15.0 15.0 15.0 15.0 15.0 15.0 0.2 0.5 4.5 15.0 15.0 15.0 15.0 14.9 15.0 15.0 15.0 15.0 15.0 15.0 15.0 15.0 15.0 15.0 15.0 15.0
15.0 15.0 15.0 15.0 15.0 15.0 15.0 0.4 0.5 6.2 15.0 14.9 10.3 13.4 2.8 12.1 15.0 15.0 15.0 15.0 15.0 15.0 15.0 15.0 15.0 15.0 15.0
15.0 15.0 15.0 6.5 6.1 13.7 15.0 15.0 15.0 15.0 15.0 15.0 10.9 14.1 3.8 2.6 3.7 15.0 15.0 15.0 15.0 15.0 15.0 15.0 15.0 15.0 15.0
15.0 15.0 8.2 13.4 15.0 15.0 15.0 15.0 15.0 15.0 15.0 15.0 14.1 15.0 5.0 1.1 2.0 13.9 15.0 15.0 15.0 15.0 15.0 15.0 15.0 15.0 15.0
15.0 15.0 13.9 1.2 15.0 15.0 15.0 15.0 15.0 14.6 15.0 15.0 15.0 9.7 2.7 3.8 2.9 0.9 15.0 0.6 13.1 15.0 15.0 15.0 15.0 15.0 15.0
0.4 1.1 15.0 15.0 15.0 15.0 15.0 11.5 0.5 12.8 15.0 15.0 15.0 15.0 15.0 4.0 0.2 9.2 14.7 15.0 15.0 15.0 11.9 4.8 15.0 15.0 15.0
0.2 6.2 15.0 15.0 15.0 15.0 12.4 1.0 1.1 7.5 9.4 14.8 4.5 2.2 1.0 3.7 11.0 1.6 11.2 7.8 15.0 15.0 15.0 2.2 7.0 15.0 15.0
0.5 4.4 6.3 15.0 15.0 2.3 0.4 0.8 0.9 6.6 14.7 15.0 3.8 0.9 0.2 0.4 15.0 15.0 14.6 15.0 15.0 15.0 14.8 12.9 8.9 15.0 15.0

GFSFLT2_sfc_vis_144.txt.gz
Visibility
15.0 15.0 15.0 15.0 15.0 15.0 15.0 15.0 15.0 15.0 15.0 15.0 15.0 15.0 15.0 15.0 15.0 15.0 15.0 15.0 15.0 15.0 15.0 15.0 15.0 15.0 15.0
15.0 15.0 15.0 15.0 15.0 15.0 15.0 15.0 15.0 15.0 15.0 15.0 15.0 15.0 15.0 15.0 15.0 15.0 15.0 15.0 15.0 15.0 15.0 15.0 15.0 15.0 15.0
15.0 15.0 15.0 15.0 15.0 15.0 15.0 15.0 15.0 15.0 15.0 15.0 15.0 15.0 15.0 15.0 15.0 15.0 15.0 15.0 15.0 15.0 15.0 15.0 15.0 15.0 15.0
15.0 15.0 15.0 15.0 15.0 15.0 15.0 15.0 15.0 15.0 15.0 15.0 15.0 15.0 15.0 15.0 15.0 15.0 15.0 15.0 15.0 15.0 15.0 15.0 15.0 15.0 15.0
15.0 15.0 15.0 15.0 15.0 15.0 15.0 15.0 15.0 15.0 15.0 15.0 15.0 15.0 15.0 15.0 15.0 15.0 15.0 15.0 15.0 15.0 15.0 15.0 15.0 15.0 15.0
15.0 15.0 15.0 15.0 15.0 15.0 15.0 15.0 14.9 15.0 15.0 15.0 15.0 15.0 15.0 15.0 15.0 15.0 15.0 15.0 15.0 15.0 15.0 15.0 15.0 15.0 15.0
15.0 15.0 15.0 15.0 15.0 15.0 15.0 15.0 15.0 15.0 15.0 14.4 15.0 15.0 15.0 15.0 15.0 15.0 15.0 15.0 15.0 15.0 15.0 15.0 15.0 15.0 15.0
15.0 15.0 15.0 15.0 15.0 15.0 15.0 15.0 15.0 15.0 15.0 0.5 15.0 15.0 15.0 15.0 15.0 15.0 15.0 15.0 15.0 15.0 15.0 15.0 15.0 15.0 15.0
15.0 15.0 15.0 15.0 15.0 15.0 15.0 3.2 1.2 15.0 15.0 0.6 15.0 15.0 15.0 15.0 15.0 15.0 15.0 15.0 15.0 15.0 15.0 15.0 15.0 15.0 15.0
15.0 15.0 15.0 15.0 15.0 15.0 0.1 0.1 15.0 3.4 15.0 2.0 15.0 15.0 15.0 15.0 15.0 15.0 15.0 15.0 15.0 15.0 15.0 15.0 15.0 15.0 15.0
15.0 15.0 15.0 15.0 15.0 15.0 11.4 0.9 0.8 0.5 15.0 14.9 11.1 12.5 15.0 15.0 15.0 15.0 15.0 15.0 15.0 15.0 15.0 15.0 15.0 15.0 15.0
15.0 15.0 15.0 15.0 15.0 3.3 0.0 0.1 15.0 15.0 15.0 9.0 5.4 15.0 5.5 6.5 2.3 15.0 15.0 15.0 15.0 15.0 15.0 15.0 15.0 15.0 15.0
15.0 15.0 15.0 15.0 2.5 0.0 0.1 0.2 15.0 15.0 15.0 15.0 14.0 15.0 6.8 0.8 1.5 15.0 15.0 15.0 15.0 15.0 15.0 15.0 15.0 15.0 15.0
15.0 15.0 15.0 7.3 0.4 0.6 0.1 4.6 14.2 15.0 15.0 15.0 15.0 15.0 3.8 0.9 1.6 1.4 15.0 1.3 13.2 15.0 15.0 15.0 15.0 15.0 15.0
14.9 10.9 4.8 0.6 0.4 0.3 0.1 1.1 0.9 15.0 13.3 11.3 15.0 15.0 15.0 12.0 0.2 4.5 14.6 15.0 15.0 15.0 15.0 15.0 15.0 15.0 15.0
0.3 0.3 1.7 3.2 0.3 0.2 0.2 0.5 7.7 9.8 9.9 6.5 4.9 3.0 1.4 4.4 9.1 1.8 11.8 14.4 15.0 15.0 15.0 3.3 11.6 15.0 15.0
0.6 8.8 10.8 0.1 0.2 0.2 0.3 1.6 1.1 2.2 11.5 5.1 3.2 0.4 0.2 0.8 15.0 15.0 12.1 15.0 15.0 6.4 15.0 13.8 6.7 15.0 15.0

GFSFLT2_sfc_vis_150.txt.gz
Visibility
15.0 15.0 15.0 15.0 15.0 15.0 15.0 15.0 15.0 15.0 15.0 15.0 15.0 15.0 15.0 15.0 15.0 15.0 15.0 15.0 15.0 15.0 15.0 15.0 15.0 15.0 15.0
15.0 15.0 15.0 15.0 15.0 15.0 15.0 15.0 15.0 15.0 15.0 15.0 15.0 15.0 15.0 15.0 15.0 15.0 15.0 15.0 15.0 15.0 15.0 15.0 15.0 15.0 15.0
15.0 15.0 15.0 15.0 15.0 15.0 15.0 15.0 15.0 15.0 15.0 15.0 15.0 15.0 15.0 15.0 15.0 15.0 15.0 15.0 15.0 15.0 15.0 15.0 15.0 15.0 15.0
15.0 15.0 15.0 15.0 15.0 15.0 15.0 15.0 15.0 15.0 15.0 15.0 15.0 15.0 15.0 15.0 15.0 15.0 15.0 15.0 15.0 15.0 15.0 15.0 15.0 15.0 15.0
15.0 15.0 15.0 15.0 15.0 15.0 15.0 15.0 15.0 15.0 15.0 15.0 15.0 15.0 15.0 15.0 15.0 15.0 15.0 15.0 15.0 15.0 15.0 15.0 15.0 15.0 15.0
15.0 15.0 15.0 15.0 15.0 15.0 15.0 15.0 15.0 15.0 15.0 15.0 15.0 15.0 15.0 15.0 15.0 15.0 15.0 15.0 15.0 15.0 15.0 15.0 15.0 15.0 15.0
15.0 15.0 15.0 15.0 15.0 15.0 15.0 15.0 15.0 15.0 15.0 15.0 15.0 15.0 15.0 15.0 15.0 15.0 15.0 15.0 15.0 15.0 15.0 15.0 15.0 15.0 15.0
15.0 15.0 15.0 15.0 15.0 15.0 15.0 15.0 15.0 15.0 15.0 15.0 15.0 15.0 15.0 15.0 15.0 15.0 15.0 15.0 15.0 15.0 15.0 15.0 15.0 15.0 15.0
15.0 15.0 15.0 15.0 15.0 15.0 0.9 0.0 4.0 15.0 15.0 15.0 15.0 15.0 15.0 15.0 15.0 15.0 15.0 15.0 15.0 15.0 15.0 15.0 15.0 15.0 15.0
15.0 15.0 15.0 15.0 15.0 15.0 13.9 0.1 13.5 1.9 15.0 15.0 15.0 15.0 14.8 15.0 15.0 15.0 15.0 15.0 15.0 15.0 15.0 15.0 15.0 15.0 15.0
15.0 15.0 15.0 15.0 15.0 15.0 0.1 0.2 0.2 10.5 15.0 14.0 11.5 12.2 10.7 15.0 15.0 15.0 15.0 15.0 15.0 15.0 15.0 15.0 15.0 15.0 15.0
15.0 15.0 7.5 15.0 0.2 0.0 0.0 0.0 15.0 15.0 15.0 14.4 2.2 10.1 5.6 10.5 15.0 15.0 15.0 15.0 15.0 15.0 15.0 15.0 15.0 15.0 15.0
0.1 0.2 8.5 15.0 15.0 1.7 10.4 15.0 15.0 15.0 15.0 0.2 0.0 1.8 4.6 1.4 9.0 15.0 15.0 15.0 15.0 15.0 15.0 15.0 15.0 15.0 15.0
0.0 1.0 0.0 0.0 0.0 1.0 10.2 15.0 0.2 0.1 12.6 0.0 0.0 0.0 0.1 1.6 4.7 6.6 15.0 3.7 15.0 15.0 15.0 15.0 15.0 15.0 15.0
0.0 0.0 0.0 0.0 0.0 0.0 0.2 0.1 0.1 2.8 0.4 0.9 0.0 0.0 1.5 9.3 0.9 6.8 15.0 15.0 15.0 15.0 15.0 13.8 15.0 15.0 15.0
0.0 0.0 0.0 0.1 0.1 0.0 0.0 0.1 0.1 5.3 0.2 0.1 0.8 0.1 0.2 3.8 8.2 2.4 10.1 15.0 15.0 15.0 15.0 9.4 15.0 15.0 15.0
0.0 0.0 0.0 0.0 0.0 0.1 0.1 0.1 0.1 0.2 0.3 0.1 0.1 0.2 0.7 0.6 15.0 15.0 11.9 14.8 10.0 13.2 9.9 11.3 9.9 15.0 15.0

GFSFLT2_sfc_vis_156.txt.gz
Visibility
15.0 15.0 15.0 15.0 15.0 15.0 15.0 15.0 15.0 15.0 15.0 15.0 15.0 15.0 15.0 15.0 15.0 15.0 15.0 15.0 15.0 15.0 15.0 15.0 15.0 15.0 15.0
15.0 15.0 15.0 15.0 15.0 15.0 15.0 15.0 15.0 15.0 15.0 15.0 15.0 15.0 15.0 15.0 15.0 15.0 15.0 15.0 15.0 15.0 15.0 15.0 15.0 15.0 15.0
15.0 15.0 15.0 15.0 15.0 15.0 15.0 15.0 15.0 15.0 15.0 15.0 15.0 15.0 15.0 15.0 15.0 15.0 15.0 15.0 15.0 15.0 15.0 15.0 15.0 15.0 15.0
15.0 15.0 15.0 15.0 15.0 15.0 15.0 15.0 15.0 15.0 15.0 15.0 15.0 15.0 15.0 15.0 15.0 15.0 15.0 15.0 15.0 15.0 15.0 15.0 15.0 15.0 15.0
15.0 15.0 15.0 15.0 15.0 15.0 15.0 15.0 15.0 15.0 15.0 15.0 15.0 15.0 15.0 15.0 15.0 15.0 15.0 15.0 15.0 15.0 15.0 15.0 15.0 15.0 15.0
15.0 15.0 15.0 15.0 15.0 15.0 15.0 15.0 15.0 15.0 15.0 15.0 15.0 15.0 15.0 15.0 15.0 15.0 15.0 15.0 15.0 15.0 15.0 15.0 15.0 15.0 15.0
14.8 15.0 15.0 15.0 15.0 15.0 15.0 15.0 15.0 15.0 15.0 15.0 15.0 15.0 15.0 15.0 15.0 15.0 15.0 15.0 15.0 15.0 15.0 15.0 15.0 15.0 15.0
15.0 15.0 15.0 15.0 15.0 15.0 15.0 15.0 15.0 15.0 15.0 15.0 15.0 15.0 15.0 15.0 15.0 15.0 15.0 15.0 15.0 15.0 15.0 15.0 15.0 15.0 15.0
15.0 15.0 15.0 15.0 15.0 15.0 5.5 3.4 0.0 1.6 15.0 15.0 15.0 15.0 15.0 15.0 15.0 15.0 15.0 15.0 15.0 15.0 15.0 15.0 15.0 15.0 15.0
15.0 15.0 15.0 15.0 15.0 15.0 15.0 2.3 0.2 0.1 15.0 15.0 14.6 0.1 0.1 14.1 15.0 15.0 15.0 15.0 15.0 15.0 15.0 15.0 15.0 15.0 15.0
15.0 15.0 15.0 15.0 15.0 15.0 15.0 15.0 0.1 0.0 15.0 12.6 0.0 0.0 0.1 4.7 15.0 15.0 15.0 15.0 15.0 15.0 15.0 15.0 15.0 15.0 15.0
15.0 15.0 15.0 15.0 15.0 15.0 15.0 15.0 15.0 0.1 6.8 2.6 0.0 0.2 0.1 0.1 1.1 15.0 15.0 15.0 15.0 15.0 15.0 15.0 15.0 15.0 13.1
15.0 15.0 15.0 15.0 15.0 15.0 15.0 15.0 15.0 0.1 0.0 0.0 0.0 0.0 0.0 0.1 0.2 2.1 15.0 15.0 15.0 15.0 15.0 15.0 15.0 15.0 15.0
9.2 15.0 15.0 15.0 15.0 15.0 0.0 0.0 0.0 0.0 0.0 0.0 0.0 0.0 0.1 0.1 3.0 0.3 15.0 15.0 15.0 15.0 15.0 15.0 15.0 15.0 15.0
15.0 15.0 15.0 15.0 8.8 6.3 0.0 0.0 0.0 0.1 0.0 0.0 0.0 0.0 0.0 1.0 0.1 1.4 0.8 0.9 15.0 15.0 15.0 15.0 15.0 15.0 15.0
2.9 11.2 0.2 0.4 0.4 0.1 0.0 0.0 0.0 0.1 0.1 0.1 0.1 0.0 0.0 0.0 0.1 0.2 1.1 6.5 8.5 7.8 2.9 1.0 15.0 15.0 15.0
11.6 0.1 0.2 0.4 0.3 0.0 0.0 0.1 0.1 0.1 0.2 0.1 0.1 0.0 0.1 1.2 15.0 15.0 0.3 0.4 0.2 0.1 0.5 1.6 15.0 15.0 15.0

GFSFLT2_sfc_vis_162.txt.gz
Visibility
15.0 15.0 15.0 15.0 15.0 15.0 15.0 15.0 15.0 15.0 15.0 15.0 15.0 15.0 15.0 15.0 15.0 15.0 15.0 15.0 15.0 15.0 15.0 15.0 15.0 15.0 15.0
15.0 15.0 15.0 15.0 15.0 15.0 15.0 15.0 15.0 15.0 15.0 15.0 15.0 15.0 15.0 15.0 15.0 15.0 15.0 15.0 15.0 15.0 15.0 15.0 15.0 15.0 15.0
15.0 15.0 15.0 15.0 15.0 15.0 15.0 15.0 15.0 15.0 15.0 15.0 15.0 15.0 15.0 15.0 15.0 15.0 15.0 15.0 15.0 15.0 15.0 15.0 15.0 15.0 15.0
15.0 15.0 15.0 15.0 15.0 15.0 15.0 15.0 15.0 15.0 15.0 15.0 15.0 15.0 15.0 15.0 15.0 15.0 15.0 15.0 15.0 15.0 15.0 15.0 15.0 15.0 15.0
15.0 15.0 15.0 15.0 15.0 15.0 15.0 15.0 15.0 15.0 15.0 15.0 15.0 15.0 15.0 15.0 15.0 15.0 15.0 15.0 15.0 15.0 15.0 15.0 15.0 15.0 15.0
15.0 15.0 15.0 15.0 15.0 15.0 15.0 15.0 15.0 15.0 15.0 15.0 15.0 15.0 15.0 15.0 15.0 15.0 15.0 15.0 15.0 15.0 15.0 15.0 15.0 15.0 15.0
14.9 15.0 15.0 15.0 15.0 15.0 15.0 14.7 15.0 15.0 15.0 15.0 15.0 15.0 15.0 15.0 15.0 15.0 15.0 15.0 15.0 15.0 15.0 15.0 15.0 15.0 15.0
15.0 15.0 15.0 15.0 15.0 15.0 13.7 8.3 10.7 15.0 15.0 3.8 15.0 15.0 15.0 15.0 15.0 15.0 15.0 15.0 15.0 15.0 15.0 13.0 15.0 15.0 15.0
15.0 15.0 15.0 15.0 15.0 14.9 15.0 10.9 11.3 15.0 15.0 12.8 15.0 15.0 15.0 15.0 15.0 15.0 15.0 15.0 15.0 15.0 15.0 14.0 15.0 15.0 15.0
14.0 14.9 15.0 15.0 15.0 15.0 15.0 0.6 1.2 1.6 15.0 2.1 1.2 10.0 1.8 15.0 15.0 15.0 15.0 15.0 15.0 14.6 7.5 8.1 9.2 10.0 9.7
0.2 11.1 15.0 15.0 15.0 15.0 15.0 15.0 0.3 0.8 15.0 2.2 0.0 2.1 0.0 0.1 6.7 15.0 15.0 15.0 15.0 15.0 5.4 4.5 5.0 6.2 0.1
15.0 15.0 15.0 15.0 15.0 15.0 15.0 15.0 11.7 6.4 15.0 10.7 0.1 0.1 0.1 0.2 0.1 10.0 15.0 15.0 0.2 0.0 0.0 0.8 4.0 4.2 1.6
15.0 15.0 15.0 15.0 15.0 15.0 15.0 15.0 15.0 15.0 15.0 15.0 10.1 0.0 0.0 0.0 0.0 0.1 0.1 4.7 0.0 0.0 0.0 0.0 0.0 1.2 14.0
15.0 15.0 15.0 15.0 15.0 15.0 15.0 15.0 4.2 9.5 15.0 15.0 12.8 0.0 0.0 0.0 0.0 0.0 0.2 0.2 0.3 0.1 0.1 0.1 0.6 15.0 14.8
15.0 15.0 15.0 15.0 15.0 15.0 7.6 8.6 0.1 14.0 15.0 15.0 15.0 0.0 0.0 0.0 0.0 0.1 0.2 0.1 0.1 0.1 0.1 0.3 0.4 7.3 15.0
3.7 5.8 1.5 9.2 2.3 0.3 0.8 0.3 0.4 10.8 0.6 7.7 0.4 0.1 0.0 0.0 0.0 0.1 0.1 0.1 0.1 0.3 0.8 0.2 13.2 15.0 15.0
0.7 0.5 1.2 0.7 2.0 3.9 1.7 1.8 3.5 1.4 0.2 0.1 0.1 0.2 0.2 0.3 1.0 0.0 0.1 0.2 0.1 0.1 0.6 0.7 11.7 15.0 15.0

GFSFLT2_sfc_vis_165.txt.gz
Visibility
15.0 15.0 15.0 15.0 15.0 15.0 15.0 15.0 15.0 15.0 15.0 15.0 15.0 15.0 15.0 15.0 15.0 15.0 15.0 15.0 15.0 15.0 15.0 15.0 15.0 15.0 15.0
15.0 15.0 15.0 15.0 15.0 15.0 15.0 15.0 15.0 15.0 15.0 15.0 15.0 15.0 15.0 15.0 15.0 15.0 15.0 15.0 15.0 15.0 15.0 15.0 15.0 15.0 15.0
15.0 15.0 15.0 15.0 15.0 15.0 15.0 15.0 15.0 15.0 15.0 15.0 15.0 15.0 15.0 15.0 15.0 15.0 15.0 15.0 15.0 15.0 15.0 15.0 15.0 15.0 15.0
15.0 15.0 15.0 15.0 15.0 15.0 15.0 15.0 15.0 15.0 15.0 15.0 15.0 15.0 15.0 15.0 15.0 15.0 15.0 15.0 15.0 15.0 15.0 15.0 15.0 15.0 15.0
15.0 15.0 15.0 15.0 15.0 15.0 15.0 15.0 15.0 15.0 15.0 15.0 15.0 15.0 15.0 15.0 15.0 15.0 15.0 15.0 15.0 15.0 15.0 14.7 14.2 14.6 15.0
15.0 15.0 15.0 15.0 15.0 15.0 15.0 15.0 11.8 15.0 15.0 15.0 15.0 15.0 15.0 15.0 15.0 15.0 15.0 15.0 15.0 15.0 15.0 15.0 15.0 11.5 15.0
14.5 15.0 15.0 15.0 15.0 15.0 15.0 10.9 15.0 14.9 15.0 13.8 15.0 15.0 15.0 15.0 15.0 15.0 15.0 15.0 15.0 15.0 15.0 15.0 15.0 15.0 10.9
15.0 15.0 15.0 15.0 15.0 12.3 3.3 0.0 0.0 4.0 15.0 10.7 15.0 15.0 15.0 15.0 15.0 15.0 15.0 15.0 15.0 15.0 15.0 15.0 13.6 15.0 12.0
15.0 15.0 15.0 5.0 3.7 4.6 0.1 0.0 1.3 15.0 15.0 4.4 15.0 15.0 15.0 15.0 15.0 15.0 15.0 15.0 15.0 14.6 15.0 15.0 15.0 11.9 15.0
14.5 15.0 15.0 15.0 15.0 15.0 15.0 2.8 14.1 1.5 15.0 4.5 15.0 9.7 0.7 15.0 15.0 15.0 15.0 15.0 15.0 15.0 15.0 15.0 15.0 15.0 12.8
15.0 15.0 15.0 15.0 15.0 15.0 15.0 15.0 0.1 0.8 15.0 4.6 0.4 10.1 0.8 0.3 15.0 15.0 15.0 15.0 15.0 15.0 15.0 15.0 15.0 8.7 0.5
15.0 15.0 15.0 15.0 15.0 15.0 15.0 15.0 15.0 10.0 15.0 14.7 0.1 0.2 0.1 0.3 8.4 15.0 15.0 15.0 15.0 15.0 15.0 15.0 4.0 3.1 6.2
15.0 15.0 15.0 15.0 15.0 15.0 15.0 15.0 15.0 15.0 15.0 15.0 0.1 0.1 0.1 0.1 0.3 6.8 3.1 1.1 15.0 2.7 0.0 0.0 0.0 1.5 0.0
13.1 15.0 15.0 15.0 15.0 15.0 1.6 15.0 2.0 8.7 15.0 15.0 14.3 0.1 0.0 0.1 0.1 0.1 7.3 0.0 2.1 0.6 0.3 0.1 0.0 0.0 0.0
7.9 12.7 12.4 15.0 11.0 15.0 11.8 4.5 0.2 0.9 10.9 15.0 15.0 5.6 0.0 0.0 0.0 0.1 0.1 0.1 0.3 0.3 0.1 0.2 0.1 0.1 0.1
6.1 8.6 0.7 0.4 1.3 2.5 0.2 4.6 0.3 5.7 7.6 14.5 0.6 0.5 0.6 0.1 0.0 0.0 0.8 0.2 0.2 0.1 0.2 0.1 0.2 0.7 1.3
0.3 0.7 0.4 0.7 0.2 0.5 15.0 4.4 0.9 15.0 15.0 3.6 0.1 0.1 0.1 3.7 15.0 5.1 0.1 0.1 0.1 0.1 0.1 0.3 1.1 1.3 15.0

GFSFLT2_sfc_vis_168.txt.gz
Visibility
15.0 15.0 15.0 15.0 15.0 15.0 15.0 15.0 15.0 15.0 15.0 15.0 15.0 15.0 15.0 15.0 15.0 15.0 15.0 15.0 15.0 15.0 15.0 15.0 15.0 15.0 15.0
15.0 15.0 15.0 15.0 15.0 15.0 15.0 15.0 15.0 15.0 15.0 15.0 15.0 15.0 15.0 15.0 15.0 15.0 15.0 15.0 15.0 15.0 15.0 15.0 15.0 15.0 15.0
15.0 15.0 15.0 15.0 15.0 15.0 15.0 15.0 15.0 15.0 15.0 15.0 15.0 15.0 15.0 15.0 15.0 15.0 15.0 15.0 15.0 15.0 15.0 15.0 15.0 15.0 15.0
15.0 15.0 15.0 15.0 15.0 15.0 15.0 15.0 15.0 15.0 15.0 15.0 15.0 15.0 15.0 15.0 15.0 15.0 15.0 15.0 15.0 15.0 15.0 15.0 15.0 15.0 11.3
15.0 15.0 15.0 15.0 15.0 15.0 15.0 15.0 15.0 15.0 15.0 15.0 15.0 15.0 15.0 15.0 15.0 15.0 15.0 15.0 15.0 15.0 15.0 15.0 15.0 15.0 15.0
15.0 15.0 13.8 15.0 15.0 15.0 15.0 15.0 14.9 15.0 15.0 15.0 15.0 15.0 15.0 15.0 15.0 15.0 15.0 15.0 15.0 14.9 15.0 15.0 15.0 15.0 15.0
15.0 15.0 15.0 15.0 12.3 0.1 1.3 4.7 0.6 15.0 14.5 0.1 15.0 15.0 15.0 15.0 15.0 15.0 15.0 15.0 15.0 15.0 15.0 15.0 15.0 15.0 15.0
15.0 15.0 15.0 15.0 12.1 1.7 0.0 0.1 15.0 15.0 9.7 1.2 15.0 15.0 15.0 15.0 15.0 15.0 15.0 15.0 15.0 15.0 11.5 15.0 15.0 15.0 15.0
15.0 14.4 14.9 10.6 15.0 15.0 15.0 15.0 15.0 15.0 15.0 15.0 15.0 14.0 15.0 15.0 15.0 15.0 15.0 15.0 15.0 15.0 15.0 15.0 13.1 15.0 15.0
14.2 15.0 15.0 15.0 15.0 15.0 15.0 1.1 1.2 0.9 14.9 0.7 12.6 2.9 1.6 15.0 15.0 15.0 15.0 15.0 15.0 15.0 15.0 15.0 15.0 15.0 15.0
15.0 15.0 15.0 15.0 15.0 15.0 15.0 3.3 0.1 0.3 15.0 0.8 0.2 0.9 1.3 1.6 15.0 15.0 15.0 15.0 15.0 15.0 15.0 15.0 15.0 15.0 15.0
15.0 15.0 9.0 6.3 15.0 15.0 15.0 15.0 15.0 0.4 12.5 14.1 0.1 0.4 0.3 0.4 9.1 15.0 15.0 15.0 15.0 15.0 15.0 15.0 15.0 12.9 7.1
6.4 9.9 15.0 15.0 15.0 15.0 15.0 15.0 15.0 15.0 15.0 15.0 0.1 0.2 0.1 0.1 0.2 13.5 15.0 15.0 15.0 15.0 15.0 15.0 1.0 0.0 0.0
13.0 15.0 15.0 15.0 5.1 15.0 0.2 5.2 0.1 15.0 15.0 15.0 15.0 0.2 0.1 0.3 0.2 0.6 14.9 0.1 12.6 1.6 0.1 0.7 0.0 0.0 0.0
15.0 12.4 12.4 15.0 7.8 15.0 12.8 1.6 0.1 11.0 12.1 15.0 15.0 10.5 6.7 0.1 0.1 11.1 0.2 0.5 0.2 0.1 0.3 2.2 0.6 0.2 0.1
0.5 2.1 0.4 0.5 0.3 9.3 5.2 10.5 11.9 12.6 15.0 15.0 15.0 5.4 15.0 15.0 6.4 0.3 10.5 0.3 0.2 0.1 0.2 0.2 0.4 0.1 0.2
13.4 1.8 1.3 2.0 11.9 5.5 8.1 5.3 2.5 14.8 15.0 15.0 0.3 0.1 0.2 4.0 15.0 15.0 0.1 0.5 0.7 0.3 0.1 0.1 0.1 0.1 0.3